Regional Weather Roundup
Issued by NWS

Home | Current Version | Previous Version | Graphics & Text | Print | Product List | Glossary On
Versions: 1 2 3 4 5 6 7 8 9 10 11 12 13 14 15 16 17 18 19 20 21 22 23 24 25 26 27 28 29 30 31 32 33 34 35 36 37 38 39 40 41 42 43 44 45 46 47 48 49 50
000
ASUS43 KFSD 091802
RWRSD

WEATHER ROUNDUP FOR SOUTH DAKOTA
NATIONAL WEATHER SERVICE SIOUX FALLS SD
100 PM CDT WED JUL 09 2014

NOTE: "FAIR" INDICATES FEW OR NO CLOUDS BELOW 12,000 FEET WITH NO
SIGNIFICANT WEATHER AND/OR OBSTRUCTIONS TO VISIBILITY.


SDZ001>005-009-010-012>017-091900-
NORTHWEST AND NORTH CENTRAL SOUTH DAKOTA

CITY           SKY/WX    TMP DP  RH WIND       PRES   REMARKS
BUFFALO          N/A     80  56  43 SE13      29.97F
FAITH            N/A     79  53  40 S9        30.04F
MOBRIDGE       SUNNY     76  59  55 CALM      30.02F HAZE
$$

SDZ012>016-024>037-041>051-057-063-072>074-091900-
SOUTHWEST AND SOUTH CENTRAL SOUTH DAKOTA

CITY           SKY/WX    TMP DP  RH WIND       PRES   REMARKS
RAPID CTY ARPT SUNNY     76  56  49 SE15      30.06S
PIERRE         SUNNY     79  50  36 VRB3      30.02F
CUSTER         SUNNY     70  51  51 E12       30.15S
ELLSWORTH AFB  MOSUNNY   77  54  45 SE16G23   30.05F
PHILIP         PTSUNNY   77  55  46 SE8       30.02F
PINE RIDGE     SUNNY     80  57  45 E3        30.01S
WINNER         FAIR      78  56  46 S14       30.05S
$$

SDZ004>011-016>023-039-040-091900-
NORTHEAST SOUTH DAKOTA

CITY           SKY/WX    TMP DP  RH WIND       PRES   REMARKS
ABERDEEN       SUNNY     73  56  54 VRB5      30.05S
WATERTOWN      MOSUNNY   74  53  48 NW7       30.05S
SISSETON         N/A     74  55  51 N6        30.03F
$$

SDZ017-020-022-023-036>040-048>070-091900-
SOUTHEAST SOUTH DAKOTA

CITY           SKY/WX    TMP DP  RH WIND       PRES   REMARKS
SIOUX FALLS    PTSUNNY   78  57  48 NW5       30.04F
HURON          MOSUNNY   80  56  43 VRB5      30.03F HAZE
CHAMBERLAIN    SUNNY     79  54  41 CALM      30.05S
MITCHELL       SUNNY     81  58  45 VRB3      30.04F
YANKTON        SUNNY     79  57  47 W6        30.05S
$$

ABBREVIATIONS USED IN REMARKS
   TC - TEMPERATURE IN CELSIUS
  WCI - WIND CHILL INDEX
   HX - HEAT INDEX
  VSB - VISIBILITY




USA.gov is the U.S. government's official web portal to all federal, state and local government web resources and services.